Year,Month,Day,Hour,Minute,Value (Times are PST for temperature in C)
2021,07,02,00,00,17.60
2021,07,02,00,01,17.60
2021,07,02,00,02,17.60
2021,07,02,00,03,17.60
2021,07,02,00,04,17.50
2021,07,02,00,05,17.50
2021,07,02,00,06,17.50
2021,07,02,00,07,17.40
2021,07,02,00,08,17.40
2021,07,02,00,09,17.40
2021,07,02,00,10,17.40
2021,07,02,00,11,17.40
2021,07,02,00,12,17.40
2021,07,02,00,13,17.30
2021,07,02,00,14,17.30
2021,07,02,00,15,17.30
2021,07,02,00,16,17.30
2021,07,02,00,17,17.30
2021,07,02,00,18,17.30
2021,07,02,00,19,17.30
2021,07,02,00,20,17.30
2021,07,02,00,21,17.30
2021,07,02,00,22,17.30
2021,07,02,00,23,17.30
2021,07,02,00,24,17.20
2021,07,02,00,25,17.20
2021,07,02,00,26,17.20
2021,07,02,00,27,17.20
2021,07,02,00,28,17.20
2021,07,02,00,29,17.20
2021,07,02,00,30,17.20
2021,07,02,00,31,17.20
2021,07,02,00,32,17.20
2021,07,02,00,33,17.20
2021,07,02,00,34,17.20
2021,07,02,00,35,17.20
2021,07,02,00,36,17.20
2021,07,02,00,37,17.20
2021,07,02,00,38,17.20
2021,07,02,00,39,17.20
2021,07,02,00,40,17.20
2021,07,02,00,41,17.20
2021,07,02,00,42,17.20
2021,07,02,00,43,17.20
2021,07,02,00,44,17.30
2021,07,02,00,45,17.20
2021,07,02,00,46,17.20
2021,07,02,00,47,17.20
2021,07,02,00,48,17.20
2021,07,02,00,49,17.20
2021,07,02,00,50,17.10
2021,07,02,00,51,17.10
2021,07,02,00,52,17.10
2021,07,02,00,53,17.10
2021,07,02,00,54,17.10
2021,07,02,00,55,17.10
2021,07,02,00,56,17.00
2021,07,02,00,57,17.00
2021,07,02,00,58,17.00
2021,07,02,00,59,17.00
2021,07,02,01,00,17.00
2021,07,02,01,01,17.00
2021,07,02,01,02,17.10
2021,07,02,01,03,17.10
2021,07,02,01,04,17.10
2021,07,02,01,05,17.10
2021,07,02,01,06,17.10
2021,07,02,01,07,17.10
2021,07,02,01,08,17.10
2021,07,02,01,09,17.10
2021,07,02,01,10,17.10
2021,07,02,01,11,17.10
2021,07,02,01,12,17.10
2021,07,02,01,13,17.20
2021,07,02,01,14,17.20
2021,07,02,01,15,17.20
2021,07,02,01,16,17.20
2021,07,02,01,17,17.20
2021,07,02,01,18,17.20
2021,07,02,01,19,17.20
2021,07,02,01,20,17.30
2021,07,02,01,21,17.30
2021,07,02,01,22,17.30
2021,07,02,01,23,17.30
2021,07,02,01,24,17.30
2021,07,02,01,25,17.40
2021,07,02,01,26,17.40
2021,07,02,01,27,17.40
2021,07,02,01,28,17.50
2021,07,02,01,29,17.60
2021,07,02,01,30,17.70
2021,07,02,01,31,17.80
2021,07,02,01,32,17.90
2021,07,02,01,33,18.00
2021,07,02,01,34,18.00
2021,07,02,01,35,18.10
2021,07,02,01,36,18.10
2021,07,02,01,37,18.20
2021,07,02,01,38,18.20
2021,07,02,01,39,18.30
2021,07,02,01,40,18.30
2021,07,02,01,41,18.40
2021,07,02,01,42,18.40
2021,07,02,01,43,18.40
2021,07,02,01,44,18.40
2021,07,02,01,45,18.40
2021,07,02,01,46,18.50
2021,07,02,01,47,18.50
2021,07,02,01,48,18.50
2021,07,02,01,49,18.50
2021,07,02,01,50,18.60
2021,07,02,01,51,18.60
2021,07,02,01,52,18.60
2021,07,02,01,53,18.60
2021,07,02,01,54,18.60
2021,07,02,01,55,18.60
2021,07,02,01,56,18.60
2021,07,02,01,57,18.50
2021,07,02,01,58,18.50
2021,07,02,01,59,18.40
2021,07,02,02,00,18.40
2021,07,02,02,01,18.30
2021,07,02,02,02,18.30
2021,07,02,02,03,18.30
2021,07,02,02,04,18.20
2021,07,02,02,05,18.20
2021,07,02,02,06,18.20
2021,07,02,02,07,18.10
2021,07,02,02,08,18.10
2021,07,02,02,09,18.00
2021,07,02,02,10,18.00
2021,07,02,02,11,17.90
2021,07,02,02,12,17.80
2021,07,02,02,13,17.80
2021,07,02,02,14,17.80
2021,07,02,02,15,17.80
2021,07,02,02,16,17.70
2021,07,02,02,17,17.70
2021,07,02,02,18,17.60
2021,07,02,02,19,17.60
2021,07,02,02,20,17.50
2021,07,02,02,21,17.50
2021,07,02,02,22,17.40
2021,07,02,02,23,17.40
2021,07,02,02,24,17.40
2021,07,02,02,25,17.30
2021,07,02,02,26,17.30
2021,07,02,02,27,17.30
2021,07,02,02,28,17.30
2021,07,02,02,29,17.20
2021,07,02,02,30,17.20
2021,07,02,02,31,17.20
2021,07,02,02,32,17.20
2021,07,02,02,33,17.10
2021,07,02,02,34,17.10
2021,07,02,02,35,17.10
2021,07,02,02,36,17.10
2021,07,02,02,37,17.00
2021,07,02,02,38,17.00
2021,07,02,02,39,16.90
2021,07,02,02,40,16.90
2021,07,02,02,41,16.80
2021,07,02,02,42,16.80
2021,07,02,02,43,16.80
2021,07,02,02,44,16.70
2021,07,02,02,45,16.70
2021,07,02,02,46,16.70
2021,07,02,02,47,16.70
2021,07,02,02,48,16.60
2021,07,02,02,49,16.60
2021,07,02,02,50,16.60
2021,07,02,02,51,16.60
2021,07,02,02,52,16.60
2021,07,02,02,53,16.60
2021,07,02,02,54,16.60
2021,07,02,02,55,16.70
2021,07,02,02,56,16.70
2021,07,02,02,57,16.70
2021,07,02,02,58,16.70
2021,07,02,02,59,16.70
2021,07,02,03,00,16.70
2021,07,02,03,01,16.60
2021,07,02,03,02,16.60
2021,07,02,03,03,16.60
2021,07,02,03,04,16.60
2021,07,02,03,05,16.50
2021,07,02,03,06,16.50
2021,07,02,03,07,16.50
2021,07,02,03,08,16.50
2021,07,02,03,09,16.50
2021,07,02,03,10,16.50
2021,07,02,03,11,16.50
2021,07,02,03,12,16.40
2021,07,02,03,13,16.40
2021,07,02,03,14,16.40
2021,07,02,03,15,16.40
2021,07,02,03,16,16.40
2021,07,02,03,17,16.40
2021,07,02,03,18,16.30
2021,07,02,03,19,16.30
2021,07,02,03,20,16.30
2021,07,02,03,21,16.30
2021,07,02,03,22,16.30
2021,07,02,03,23,16.30
2021,07,02,03,24,16.30
2021,07,02,03,25,16.20
2021,07,02,03,26,16.20
2021,07,02,03,27,16.20
2021,07,02,03,28,16.20
2021,07,02,03,29,16.20
2021,07,02,03,30,16.10
2021,07,02,03,31,16.10
2021,07,02,03,32,16.10
2021,07,02,03,33,16.10
2021,07,02,03,34,16.10
2021,07,02,03,35,16.10
2021,07,02,03,36,16.10
2021,07,02,03,37,16.10
2021,07,02,03,38,16.10
2021,07,02,03,39,16.00
2021,07,02,03,40,16.00
2021,07,02,03,41,15.90
2021,07,02,03,42,15.90
2021,07,02,03,43,15.90
2021,07,02,03,44,15.90
2021,07,02,03,45,15.90
2021,07,02,03,46,15.80
2021,07,02,03,47,15.80
2021,07,02,03,48,15.80
2021,07,02,03,49,15.80
2021,07,02,03,50,15.80
2021,07,02,03,51,15.80
2021,07,02,03,52,15.80
2021,07,02,03,53,15.80
2021,07,02,03,54,15.90
2021,07,02,03,55,15.90
2021,07,02,03,56,15.90
2021,07,02,03,57,15.90
2021,07,02,03,58,15.90
2021,07,02,03,59,15.90
2021,07,02,04,00,16.00
2021,07,02,04,01,16.00
2021,07,02,04,02,16.00
2021,07,02,04,03,15.90
2021,07,02,04,04,15.90
2021,07,02,04,08,15.90
2021,07,02,04,09,15.90
2021,07,02,04,10,15.90
2021,07,02,04,11,15.90
2021,07,02,04,12,15.90
2021,07,02,04,13,15.80
2021,07,02,04,14,15.80
2021,07,02,04,15,15.80
2021,07,02,04,16,15.80
2021,07,02,04,17,15.80
2021,07,02,04,18,15.80
2021,07,02,04,19,15.70
2021,07,02,04,20,15.70
2021,07,02,04,21,15.70
2021,07,02,04,22,15.70
2021,07,02,04,23,15.70
2021,07,02,04,24,15.70
2021,07,02,04,25,15.60
2021,07,02,04,26,15.60
2021,07,02,04,27,15.60
2021,07,02,04,28,15.60
2021,07,02,04,29,15.60
2021,07,02,04,30,15.50
2021,07,02,04,31,15.50
2021,07,02,04,32,15.50
2021,07,02,04,33,15.50
2021,07,02,04,34,15.40
2021,07,02,04,35,15.50
2021,07,02,04,36,15.50
2021,07,02,04,37,15.50
2021,07,02,04,38,15.50
2021,07,02,04,39,15.50
2021,07,02,04,40,15.50
2021,07,02,04,41,15.50
2021,07,02,04,42,15.50
2021,07,02,04,43,15.50
2021,07,02,04,44,15.50
2021,07,02,04,45,15.60
2021,07,02,04,46,15.60
2021,07,02,04,47,15.60
2021,07,02,04,48,15.60
2021,07,02,04,49,15.60
2021,07,02,04,50,15.60
2021,07,02,04,51,15.60
2021,07,02,04,52,15.60
2021,07,02,04,53,15.60
2021,07,02,04,54,15.60
2021,07,02,04,55,15.60
2021,07,02,04,56,15.60
2021,07,02,04,57,15.60
2021,07,02,04,58,15.60
2021,07,02,04,59,15.60
2021,07,02,05,00,15.60
2021,07,02,05,01,15.50
2021,07,02,05,02,15.50
2021,07,02,05,03,15.50
2021,07,02,05,04,15.50
2021,07,02,05,05,15.50
2021,07,02,05,06,15.50
2021,07,02,05,07,15.50
2021,07,02,05,08,15.50
2021,07,02,05,09,15.50
2021,07,02,05,10,15.40
2021,07,02,05,11,15.40
2021,07,02,05,12,15.40
2021,07,02,05,13,15.40
2021,07,02,05,14,15.40
2021,07,02,05,15,15.40
2021,07,02,05,16,15.40
2021,07,02,05,17,15.40
2021,07,02,05,18,15.40
2021,07,02,05,19,15.40
2021,07,02,05,20,15.40
2021,07,02,05,21,15.40
2021,07,02,05,22,15.30
2021,07,02,05,23,15.30
2021,07,02,05,24,15.30
2021,07,02,05,25,15.30
2021,07,02,05,26,15.30
2021,07,02,05,27,15.30
2021,07,02,05,28,15.30
2021,07,02,05,29,15.30
2021,07,02,05,30,15.30
2021,07,02,05,31,15.30
2021,07,02,05,32,15.20
2021,07,02,05,33,15.20
2021,07,02,05,34,15.20
2021,07,02,05,35,15.20
2021,07,02,05,36,15.20
2021,07,02,05,37,15.20
2021,07,02,05,38,15.20
2021,07,02,05,39,15.20
2021,07,02,05,40,15.20
2021,07,02,05,41,15.20
2021,07,02,05,42,15.20
2021,07,02,05,43,15.30
2021,07,02,05,44,15.30
2021,07,02,05,45,15.30
2021,07,02,05,46,15.30
2021,07,02,05,47,15.30
2021,07,02,05,48,15.30
2021,07,02,05,49,15.30
2021,07,02,05,50,15.30
2021,07,02,05,51,15.30
2021,07,02,05,52,15.40
2021,07,02,05,53,15.40
2021,07,02,05,54,15.40
2021,07,02,05,55,15.50
2021,07,02,05,56,15.50
2021,07,02,05,57,15.50
2021,07,02,05,58,15.60
2021,07,02,05,59,15.60
2021,07,02,06,00,15.60
2021,07,02,06,01,15.60
2021,07,02,06,02,15.60
2021,07,02,06,03,15.60
2021,07,02,06,04,15.60
2021,07,02,06,05,15.60
2021,07,02,06,06,15.60
2021,07,02,06,07,15.60
2021,07,02,06,08,15.70
2021,07,02,06,09,15.70
2021,07,02,06,10,15.70
2021,07,02,06,11,15.70
2021,07,02,06,12,15.70
2021,07,02,06,13,15.70
2021,07,02,06,14,15.80
2021,07,02,06,15,15.80
2021,07,02,06,16,15.80
2021,07,02,06,17,15.80
2021,07,02,06,18,15.80
2021,07,02,06,19,15.80
2021,07,02,06,20,15.90
2021,07,02,06,21,15.90
2021,07,02,06,22,15.90
2021,07,02,06,23,15.90
2021,07,02,06,24,15.90
2021,07,02,06,25,16.00
2021,07,02,06,26,16.00
2021,07,02,06,27,16.00
2021,07,02,06,28,16.10
2021,07,02,06,29,16.10
2021,07,02,06,30,16.10
2021,07,02,06,31,16.20
2021,07,02,06,32,16.20
2021,07,02,06,33,16.20
2021,07,02,06,34,16.20
2021,07,02,06,35,16.30
2021,07,02,06,36,16.30
2021,07,02,06,37,16.30
2021,07,02,06,38,16.30
2021,07,02,06,39,16.30
2021,07,02,06,40,16.30
2021,07,02,06,41,16.40
2021,07,02,06,42,16.40
2021,07,02,06,43,16.40
2021,07,02,06,44,16.40
2021,07,02,06,45,16.50
2021,07,02,06,46,16.50
2021,07,02,06,47,16.50
2021,07,02,06,48,16.60
2021,07,02,06,49,16.60
2021,07,02,06,50,16.60
2021,07,02,06,51,16.60
2021,07,02,06,52,16.70
2021,07,02,06,53,16.70
2021,07,02,06,54,16.70
2021,07,02,06,55,16.70
2021,07,02,06,56,16.70
2021,07,02,06,57,16.80
2021,07,02,06,58,16.80
2021,07,02,06,59,16.80
2021,07,02,07,00,16.90
2021,07,02,07,01,16.90
2021,07,02,07,02,16.90
2021,07,02,07,03,16.90
2021,07,02,07,04,16.90
2021,07,02,07,05,16.90
2021,07,02,07,06,16.90
2021,07,02,07,07,17.00
2021,07,02,07,08,17.00
2021,07,02,07,09,17.10
2021,07,02,07,10,17.10
2021,07,02,07,11,17.10
2021,07,02,07,12,17.10
2021,07,02,07,13,17.10
2021,07,02,07,14,17.20
2021,07,02,07,15,17.20
2021,07,02,07,16,17.20
2021,07,02,07,17,17.20
2021,07,02,07,18,17.20
2021,07,02,07,19,17.20
2021,07,02,07,20,17.20
2021,07,02,07,21,17.30
2021,07,02,07,22,17.30
2021,07,02,07,23,17.30
2021,07,02,07,24,17.30
2021,07,02,07,25,17.30
2021,07,02,07,26,17.30
2021,07,02,07,27,17.30
2021,07,02,07,28,17.40
2021,07,02,07,29,17.40
2021,07,02,07,30,17.40
2021,07,02,07,31,17.40
2021,07,02,07,32,17.40
2021,07,02,07,33,17.40
2021,07,02,07,34,17.40
2021,07,02,07,35,17.40
2021,07,02,07,36,17.40
2021,07,02,07,37,17.40
2021,07,02,07,38,17.40
2021,07,02,07,39,17.30
2021,07,02,07,40,17.20
2021,07,02,07,41,17.20
2021,07,02,07,42,17.10
2021,07,02,07,43,17.00
2021,07,02,07,44,16.90
2021,07,02,07,45,16.90
2021,07,02,07,46,16.90
2021,07,02,07,47,16.80
2021,07,02,07,48,16.70
2021,07,02,07,49,16.70
2021,07,02,07,50,16.60
2021,07,02,07,51,16.50
2021,07,02,07,52,16.40
2021,07,02,07,53,16.40
2021,07,02,07,54,16.30
2021,07,02,07,55,16.20
2021,07,02,07,56,16.20
2021,07,02,07,57,16.20
2021,07,02,07,58,16.20
2021,07,02,07,59,16.20
2021,07,02,08,00,16.10
2021,07,02,08,01,16.20
2021,07,02,08,02,16.20
2021,07,02,08,03,16.20
2021,07,02,08,04,16.20
2021,07,02,08,05,16.20
2021,07,02,08,06,16.20
2021,07,02,08,07,16.20
2021,07,02,08,08,16.30
2021,07,02,08,09,16.30
2021,07,02,08,10,16.30
2021,07,02,08,11,16.40
2021,07,02,08,12,16.40
2021,07,02,08,13,16.40
2021,07,02,08,14,16.50
2021,07,02,08,15,16.50
2021,07,02,08,16,16.50
2021,07,02,08,17,16.60
2021,07,02,08,18,16.60
2021,07,02,08,19,16.60
2021,07,02,08,20,16.70
2021,07,02,08,21,16.70
2021,07,02,08,22,16.70
2021,07,02,08,23,16.70
2021,07,02,08,24,16.80
2021,07,02,08,25,16.80
2021,07,02,08,26,16.80
2021,07,02,08,27,16.80
2021,07,02,08,28,16.90
2021,07,02,08,29,16.90
2021,07,02,08,30,16.90
2021,07,02,08,31,17.00
2021,07,02,08,32,17.00
2021,07,02,08,33,17.00
2021,07,02,08,34,17.10
2021,07,02,08,35,17.10
2021,07,02,08,36,17.10
2021,07,02,08,37,17.10
2021,07,02,08,38,17.20
2021,07,02,08,39,17.20
2021,07,02,08,40,17.20
2021,07,02,08,41,17.20
2021,07,02,08,42,17.20
2021,07,02,08,43,17.30
2021,07,02,08,44,17.30
2021,07,02,08,45,17.30
2021,07,02,08,46,17.40
2021,07,02,08,47,17.40
2021,07,02,08,48,17.40
2021,07,02,08,49,17.50
2021,07,02,08,50,17.50
2021,07,02,08,51,17.50
2021,07,02,08,52,17.60
2021,07,02,08,53,17.70
2021,07,02,08,54,17.70
2021,07,02,08,55,17.70
2021,07,02,08,56,17.80
2021,07,02,08,57,17.80
2021,07,02,08,58,17.80
2021,07,02,08,59,17.80
2021,07,02,09,00,17.90
2021,07,02,09,01,17.90
2021,07,02,09,02,18.00
2021,07,02,09,03,18.00
2021,07,02,09,04,18.10
2021,07,02,09,05,18.10
2021,07,02,09,06,18.10
2021,07,02,09,07,18.20
2021,07,02,09,08,18.20
2021,07,02,09,09,18.30
2021,07,02,09,10,18.30
2021,07,02,09,11,18.40
2021,07,02,09,12,18.50
2021,07,02,09,13,18.50
2021,07,02,09,14,18.60
2021,07,02,09,15,18.70
2021,07,02,09,16,18.70
2021,07,02,09,17,18.80
2021,07,02,09,18,18.80
2021,07,02,09,19,18.80
2021,07,02,09,20,18.90
2021,07,02,09,21,18.90
2021,07,02,09,22,18.80
2021,07,02,09,23,18.90
2021,07,02,09,24,18.90
2021,07,02,09,25,18.90
2021,07,02,09,26,18.90
2021,07,02,09,27,18.90
2021,07,02,09,28,18.90
2021,07,02,09,29,18.90
2021,07,02,09,30,19.00
2021,07,02,09,31,19.00
2021,07,02,09,32,19.00
2021,07,02,09,33,19.00
2021,07,02,09,34,19.00
2021,07,02,09,35,19.00
2021,07,02,09,36,19.00
2021,07,02,09,37,19.00
2021,07,02,09,38,19.00
2021,07,02,09,39,19.00
2021,07,02,09,40,19.10
2021,07,02,09,41,19.10
2021,07,02,09,42,19.10
2021,07,02,09,43,19.10
2021,07,02,09,44,19.10
2021,07,02,09,45,19.10
2021,07,02,09,46,19.10
2021,07,02,09,47,19.20
2021,07,02,09,48,19.20
2021,07,02,09,49,19.20
2021,07,02,09,50,19.30
2021,07,02,09,51,19.30
2021,07,02,09,52,19.30
2021,07,02,09,53,19.30
2021,07,02,09,54,19.30
2021,07,02,09,55,19.30
2021,07,02,09,56,19.40
2021,07,02,09,57,19.40
2021,07,02,09,58,19.40
2021,07,02,09,59,19.50
2021,07,02,10,00,19.60
2021,07,02,10,01,19.60
2021,07,02,10,02,19.60
2021,07,02,10,03,19.60
2021,07,02,10,04,19.60
2021,07,02,10,05,19.70
2021,07,02,10,06,19.80
2021,07,02,10,07,19.90
2021,07,02,10,08,20.00
2021,07,02,10,09,20.10
2021,07,02,10,10,20.20
2021,07,02,10,11,20.30
2021,07,02,10,12,20.40
2021,07,02,10,13,20.40
2021,07,02,10,14,20.40
2021,07,02,10,15,20.40
2021,07,02,10,16,20.40
2021,07,02,10,17,20.50
2021,07,02,10,18,20.50
2021,07,02,10,19,20.50
2021,07,02,10,20,20.50
2021,07,02,10,21,20.50
2021,07,02,10,22,20.50
2021,07,02,10,23,20.50
2021,07,02,10,24,20.50
2021,07,02,10,25,20.50
2021,07,02,10,26,20.60
2021,07,02,10,27,20.70
2021,07,02,10,28,20.70
2021,07,02,10,29,20.80
2021,07,02,10,30,20.80
2021,07,02,10,31,20.70
2021,07,02,10,32,20.60
2021,07,02,10,33,20.50
2021,07,02,10,34,20.40
2021,07,02,10,35,20.30
2021,07,02,10,36,20.30
2021,07,02,10,37,20.20
2021,07,02,10,38,20.10
2021,07,02,10,39,20.10
2021,07,02,10,40,20.00
2021,07,02,10,41,20.00
2021,07,02,10,42,19.90
2021,07,02,10,43,19.90
2021,07,02,10,44,19.90
2021,07,02,10,45,19.90
2021,07,02,10,46,19.90
2021,07,02,10,47,19.90
2021,07,02,10,48,19.90
2021,07,02,10,49,19.90
2021,07,02,10,50,19.80
2021,07,02,10,51,19.80
2021,07,02,10,52,19.70
2021,07,02,10,53,19.60
2021,07,02,10,54,19.60
2021,07,02,10,55,19.50
2021,07,02,10,56,19.50
2021,07,02,10,57,19.50
2021,07,02,10,58,19.50
2021,07,02,10,59,19.50
2021,07,02,11,00,19.50
2021,07,02,11,01,19.40
2021,07,02,11,02,19.40
2021,07,02,11,03,19.30
2021,07,02,11,04,19.40
2021,07,02,11,05,19.40
2021,07,02,11,06,19.40
2021,07,02,11,07,19.50
2021,07,02,11,08,19.50
2021,07,02,11,09,19.60
2021,07,02,11,10,19.50
2021,07,02,11,11,19.40
2021,07,02,11,12,19.30
2021,07,02,11,13,19.20
2021,07,02,11,14,19.10
2021,07,02,11,15,19.00
2021,07,02,11,16,18.90
2021,07,02,11,17,18.90
2021,07,02,11,18,18.80
2021,07,02,11,19,18.80
2021,07,02,11,20,18.90
2021,07,02,11,21,18.90
2021,07,02,11,22,19.00
2021,07,02,11,23,19.00
2021,07,02,11,24,19.00
2021,07,02,11,25,19.00
2021,07,02,11,26,19.00
2021,07,02,11,27,19.00
2021,07,02,11,28,19.10
2021,07,02,11,29,19.10
2021,07,02,11,30,19.10
2021,07,02,11,31,19.10
2021,07,02,11,32,19.10
2021,07,02,11,33,19.00
2021,07,02,11,34,18.90
2021,07,02,11,35,18.80
2021,07,02,11,36,18.80
2021,07,02,11,37,18.70
2021,07,02,11,38,18.70
2021,07,02,11,39,18.70
2021,07,02,11,40,18.70
2021,07,02,11,41,18.70
2021,07,02,11,42,18.70
2021,07,02,11,43,18.70
2021,07,02,11,44,18.70
2021,07,02,11,45,18.70
2021,07,02,11,46,18.70
2021,07,02,11,47,18.80
2021,07,02,11,48,18.80
2021,07,02,11,49,18.80
2021,07,02,11,50,18.90
2021,07,02,11,51,19.00
2021,07,02,11,52,19.10
2021,07,02,11,53,19.10
2021,07,02,11,54,19.10
2021,07,02,11,55,19.10
2021,07,02,11,56,19.10
2021,07,02,11,57,19.10
2021,07,02,11,58,19.20
2021,07,02,11,59,19.20
2021,07,02,12,00,19.30
2021,07,02,12,01,19.30
2021,07,02,12,02,19.40
2021,07,02,12,03,19.50
2021,07,02,12,04,19.50
2021,07,02,12,05,19.50
2021,07,02,12,06,19.40
2021,07,02,12,07,19.40
2021,07,02,12,08,19.40
2021,07,02,12,09,19.30
2021,07,02,12,10,19.30
2021,07,02,12,11,19.30
2021,07,02,12,12,19.20
2021,07,02,12,13,19.20
2021,07,02,12,14,19.20
2021,07,02,12,15,19.30
2021,07,02,12,16,19.30
2021,07,02,12,17,19.30
2021,07,02,12,18,19.30
2021,07,02,12,19,19.40
2021,07,02,12,20,19.50
2021,07,02,12,21,19.60
2021,07,02,12,22,19.70
2021,07,02,12,23,19.80
2021,07,02,12,24,19.90
2021,07,02,12,25,20.00
2021,07,02,12,26,20.00
2021,07,02,12,27,20.10
2021,07,02,12,28,20.00
2021,07,02,12,29,20.00
2021,07,02,12,30,20.10
2021,07,02,12,31,20.00
2021,07,02,12,32,20.00
2021,07,02,12,33,19.90
2021,07,02,12,34,19.90
2021,07,02,12,35,19.90
2021,07,02,12,36,19.90
2021,07,02,12,37,19.90
2021,07,02,12,38,20.00
2021,07,02,12,39,20.00
2021,07,02,12,40,20.00
2021,07,02,12,41,20.00
2021,07,02,12,42,19.90
2021,07,02,12,43,19.70
2021,07,02,12,44,19.70
2021,07,02,12,45,19.60
2021,07,02,12,46,19.60
2021,07,02,12,47,19.60
2021,07,02,12,48,19.60
2021,07,02,12,49,19.70
2021,07,02,12,50,19.70
2021,07,02,12,51,19.70
2021,07,02,12,52,19.70
2021,07,02,12,53,19.80
2021,07,02,12,54,19.80
2021,07,02,12,55,19.90
2021,07,02,12,56,19.90
2021,07,02,12,57,19.90
2021,07,02,12,58,19.90
2021,07,02,12,59,19.80
2021,07,02,13,00,19.90
2021,07,02,13,01,19.90
2021,07,02,13,02,19.90
2021,07,02,13,03,19.90
2021,07,02,13,04,19.90
2021,07,02,13,05,19.90
2021,07,02,13,06,19.90
2021,07,02,13,07,20.00
2021,07,02,13,08,20.00
2021,07,02,13,09,20.00
2021,07,02,13,10,20.00
2021,07,02,13,11,20.00
2021,07,02,13,12,20.00
2021,07,02,13,13,20.10
2021,07,02,13,14,20.10
2021,07,02,13,15,20.20
2021,07,02,13,16,20.30
2021,07,02,13,17,20.30
2021,07,02,13,18,20.20
2021,07,02,13,19,20.20
2021,07,02,13,20,20.20
2021,07,02,13,21,20.20
2021,07,02,13,22,20.20
2021,07,02,13,23,20.30
2021,07,02,13,24,20.30
2021,07,02,13,25,20.50
2021,07,02,13,26,20.60
2021,07,02,13,27,20.70
2021,07,02,13,28,20.80
2021,07,02,13,29,21.00
2021,07,02,13,30,21.10
2021,07,02,13,31,21.10
2021,07,02,13,32,21.20
2021,07,02,13,33,21.30
2021,07,02,13,34,21.40
2021,07,02,13,35,21.60
2021,07,02,13,36,21.70
2021,07,02,13,37,21.80
2021,07,02,13,38,21.90
2021,07,02,13,39,22.00
2021,07,02,13,40,22.10
2021,07,02,13,41,22.10
2021,07,02,13,42,22.10
2021,07,02,13,43,22.20
2021,07,02,13,44,22.20
2021,07,02,13,45,22.30
2021,07,02,13,46,22.30
2021,07,02,13,47,22.30
2021,07,02,13,48,22.30
2021,07,02,13,49,22.30
2021,07,02,13,50,22.30
2021,07,02,13,51,22.30
2021,07,02,13,52,22.30
2021,07,02,13,53,22.30
2021,07,02,13,54,22.30
2021,07,02,13,55,22.40
2021,07,02,13,56,22.40
2021,07,02,13,57,22.40
2021,07,02,13,58,22.30
2021,07,02,13,59,22.40
2021,07,02,14,00,22.40
2021,07,02,14,01,22.40
2021,07,02,14,02,22.40
2021,07,02,14,03,22.50
2021,07,02,14,04,22.50
2021,07,02,14,05,22.60
2021,07,02,14,06,22.60
2021,07,02,14,07,22.60
2021,07,02,14,08,22.60
2021,07,02,14,09,22.50
2021,07,02,14,10,22.50
2021,07,02,14,11,22.50
2021,07,02,14,12,22.40
2021,07,02,14,13,22.40
2021,07,02,14,14,22.40
2021,07,02,14,15,22.40
2021,07,02,14,16,22.40
2021,07,02,14,17,22.40
2021,07,02,14,18,22.40
2021,07,02,14,19,22.40
2021,07,02,14,20,22.40
2021,07,02,14,21,22.40
2021,07,02,14,22,22.40
2021,07,02,14,23,22.40
2021,07,02,14,24,22.40
2021,07,02,14,25,22.40
2021,07,02,14,26,22.40
2021,07,02,14,27,22.40
2021,07,02,14,28,22.40
2021,07,02,14,29,22.50
2021,07,02,14,30,22.50
2021,07,02,14,31,22.60
2021,07,02,14,32,22.60
2021,07,02,14,33,22.60
2021,07,02,14,34,22.60
2021,07,02,14,35,22.60
2021,07,02,14,36,22.70
2021,07,02,14,37,22.70
2021,07,02,14,38,22.70
2021,07,02,14,39,22.70
2021,07,02,14,40,22.70
2021,07,02,14,41,22.70
2021,07,02,14,42,22.70
2021,07,02,14,43,22.60
2021,07,02,14,44,22.60
2021,07,02,14,45,22.60
2021,07,02,14,46,22.60
2021,07,02,14,47,22.50
2021,07,02,14,48,22.60
2021,07,02,14,49,22.60
2021,07,02,14,50,22.60
2021,07,02,14,51,22.60
2021,07,02,14,52,22.60
2021,07,02,14,53,22.60
2021,07,02,14,54,22.50
2021,07,02,14,55,22.50
2021,07,02,14,56,22.40
2021,07,02,14,57,22.40
2021,07,02,14,58,22.40
2021,07,02,14,59,22.40
2021,07,02,15,00,22.40
2021,07,02,15,01,22.40
2021,07,02,15,02,22.30
2021,07,02,15,03,22.30
2021,07,02,15,04,22.30
2021,07,02,15,05,22.20
2021,07,02,15,06,22.20
2021,07,02,15,07,22.20
2021,07,02,15,08,22.20
2021,07,02,15,09,22.20
2021,07,02,15,10,22.30
2021,07,02,15,11,22.40
2021,07,02,15,12,22.40
2021,07,02,15,13,22.40
2021,07,02,15,14,22.40
2021,07,02,15,15,22.40
2021,07,02,15,16,22.30
2021,07,02,15,17,22.30
2021,07,02,15,18,22.30
2021,07,02,15,19,22.30
2021,07,02,15,20,22.20
2021,07,02,15,21,22.20
2021,07,02,15,22,22.30
2021,07,02,15,23,22.30
2021,07,02,15,24,22.30
2021,07,02,15,25,22.40
2021,07,02,15,26,22.50
2021,07,02,15,27,22.60
2021,07,02,15,28,22.60
2021,07,02,15,29,22.70
2021,07,02,15,30,22.70
2021,07,02,15,31,22.80
2021,07,02,15,32,22.80
2021,07,02,15,33,22.80
2021,07,02,15,34,22.80
2021,07,02,15,35,22.80
2021,07,02,15,36,22.80
2021,07,02,15,37,22.80
2021,07,02,15,38,22.80
2021,07,02,15,39,22.80
2021,07,02,15,40,22.80
2021,07,02,15,41,22.80
2021,07,02,15,42,22.80
2021,07,02,15,43,22.80
2021,07,02,15,44,22.80
2021,07,02,15,45,22.80
2021,07,02,15,46,22.80
2021,07,02,15,47,22.80
2021,07,02,15,48,22.80
2021,07,02,15,49,22.80
2021,07,02,15,50,22.80
2021,07,02,15,51,22.70
2021,07,02,15,52,22.80
2021,07,02,15,53,22.80
2021,07,02,15,54,22.80
2021,07,02,15,55,22.80
2021,07,02,15,56,22.80
2021,07,02,15,57,22.80
2021,07,02,15,58,22.80
2021,07,02,15,59,22.80
2021,07,02,16,00,22.80
2021,07,02,16,01,22.80
2021,07,02,16,02,22.80
2021,07,02,16,03,22.80
2021,07,02,16,04,22.80
2021,07,02,16,05,22.90
2021,07,02,16,06,22.90
2021,07,02,16,07,22.90
2021,07,02,16,08,22.90
2021,07,02,16,09,22.90
2021,07,02,16,10,22.90
2021,07,02,16,11,22.90
2021,07,02,16,12,22.90
2021,07,02,16,13,23.00
2021,07,02,16,14,23.00
2021,07,02,16,15,23.00
2021,07,02,16,16,23.00
2021,07,02,16,17,23.00
2021,07,02,16,18,22.90
2021,07,02,16,19,22.90
2021,07,02,16,20,22.90
2021,07,02,16,21,22.90
2021,07,02,16,22,23.00
2021,07,02,16,23,23.00
2021,07,02,16,24,23.00
2021,07,02,16,25,23.10
2021,07,02,16,26,23.10
2021,07,02,16,27,23.20
2021,07,02,16,28,23.20
2021,07,02,16,29,23.20
2021,07,02,16,30,23.20
2021,07,02,16,31,23.20
2021,07,02,16,32,23.20
2021,07,02,16,33,23.20
2021,07,02,16,34,23.10
2021,07,02,16,35,23.10
2021,07,02,16,36,23.10
2021,07,02,16,37,23.10
2021,07,02,16,38,23.00
2021,07,02,16,39,23.00
2021,07,02,16,40,23.00
2021,07,02,16,41,22.90
2021,07,02,16,42,22.90
2021,07,02,16,43,22.90
2021,07,02,16,44,22.80
2021,07,02,16,45,22.80
2021,07,02,16,46,22.80
2021,07,02,16,47,22.80
2021,07,02,16,48,22.80
2021,07,02,16,49,22.80
2021,07,02,16,50,22.80
2021,07,02,16,51,22.80
2021,07,02,16,52,22.80
2021,07,02,16,53,22.80
2021,07,02,16,54,22.70
2021,07,02,16,55,22.70
2021,07,02,16,56,22.70
2021,07,02,16,57,22.70
2021,07,02,16,58,22.70
2021,07,02,16,59,22.80
2021,07,02,17,00,22.80
2021,07,02,17,01,22.80
2021,07,02,17,02,22.80
2021,07,02,17,03,22.80
2021,07,02,17,04,22.80
2021,07,02,17,05,22.80
2021,07,02,17,06,22.80
2021,07,02,17,07,22.80
2021,07,02,17,08,22.80
2021,07,02,17,09,22.80
2021,07,02,17,10,22.80
2021,07,02,17,11,22.80
2021,07,02,17,12,22.80
2021,07,02,17,13,22.90
2021,07,02,17,14,22.90
2021,07,02,17,15,22.90
2021,07,02,17,16,22.90
2021,07,02,17,17,22.90
2021,07,02,17,18,22.90
2021,07,02,17,19,22.90
2021,07,02,17,20,22.90
2021,07,02,17,21,22.90
2021,07,02,17,22,22.90